TimeAKST,TemperatureF,Dew PointF,Humidity,Sea Level PressureIn,VisibilityMPH,Wind Direction,Wind SpeedMPH,Gust SpeedMPH,PrecipitationIn,Events,Conditions,WindDirDegrees,DateUTC
12:16 AM,35.6,30.2,81,29.16,3.0,ESE,12.7,26.5,N/A,,Overcast,110,2013-01-29 09:16:00
12:36 AM,35.6,30.2,81,29.16,4.0,East,10.4,21.9,N/A,,Overcast,80,2013-01-29 09:36:00
12:56 AM,35.6,32.0,87,29.16,3.0,East,17.3,25.3,0.19,,Overcast,90,2013-01-29 09:56:00
1:16 AM,35.6,33.8,93,29.17,4.0,East,15.0,26.5,0.07,,Overcast,80,2013-01-29 10:16:00
1:36 AM,37.4,33.8,87,29.18,4.0,ENE,19.6,25.3,0.13,,Overcast,70,2013-01-29 10:36:00
1:56 AM,37.4,33.8,87,29.16,5.0,ENE,19.6,24.2,0.20,,Overcast,70,2013-01-29 10:56:00
2:16 AM,37.4,33.8,87,29.17,10.0,East,9.2,-,0.08,,Overcast,100,2013-01-29 11:16:00
2:36 AM,37.4,33.8,87,29.17,7.0,East,9.2,-,0.11,,Overcast,80,2013-01-29 11:36:00
2:56 AM,37.4,33.8,87,29.17,4.0,East,6.9,-,0.14,,Overcast,80,2013-01-29 11:56:00
3:36 AM,39.2,35.6,87,29.19,3.0,ESE,4.6,-,0.03,,Overcast,110,2013-01-29 12:36:00
3:56 AM,39.2,35.6,87,29.19,4.0,East,5.8,-,0.04,,Overcast,90,2013-01-29 12:56:00
4:16 AM,39.2,35.6,87,29.19,7.0,East,8.1,16.1,0.01,,Overcast,100,2013-01-29 13:16:00
4:36 AM,39.2,35.6,87,29.19,5.0,East,9.2,-,0.02,,Overcast,100,2013-01-29 13:36:00
4:56 AM,39.2,35.6,87,29.20,6.0,ESE,11.5,-,0.03,,Overcast,120,2013-01-29 13:56:00
5:16 AM,39.2,35.6,87,29.21,10.0,SE,4.6,-,N/A,,Overcast,130,2013-01-29 14:16:00
5:36 AM,39.2,35.6,87,29.21,10.0,East,6.9,16.1,N/A,,Overcast,100,2013-01-29 14:36:00
5:56 AM,39.2,35.6,87,29.21,10.0,ESE,10.4,-,N/A,,Overcast,110,2013-01-29 14:56:00
6:16 AM,39.2,33.8,81,29.22,10.0,ESE,6.9,-,N/A,,Overcast,120,2013-01-29 15:16:00
6:36 AM,39.2,33.8,81,29.22,10.0,ESE,10.4,-,N/A,,Overcast,120,2013-01-29 15:36:00
6:56 AM,39.2,33.8,81,29.23,10.0,ESE,10.4,16.1,N/A,,Overcast,120,2013-01-29 15:56:00
7:16 AM,39.2,33.8,81,29.23,10.0,ESE,6.9,-,N/A,,Overcast,120,2013-01-29 16:16:00
7:36 AM,39.2,33.8,81,29.23,10.0,ESE,6.9,-,N/A,,Overcast,110,2013-01-29 16:36:00
7:56 AM,39.2,33.8,81,29.24,10.0,ESE,4.6,-,N/A,,Overcast,120,2013-01-29 16:56:00
8:16 AM,39.2,33.8,81,29.24,10.0,ESE,12.7,16.1,N/A,,Overcast,120,2013-01-29 17:16:00
8:36 AM,39.2,33.8,81,29.24,10.0,SE,9.2,20.7,N/A,,Overcast,130,2013-01-29 17:36:00
8:56 AM,39.2,32.0,75,29.24,10.0,SE,9.2,19.6,0.02,,Overcast,130,2013-01-29 17:56:00
9:16 AM,39.2,32.0,75,29.25,10.0,SE,11.5,18.4,N/A,,Overcast,130,2013-01-29 18:16:00
9:36 AM,41.0,32.0,70,29.26,10.0,SE,19.6,27.6,0.01,,Overcast,130,2013-01-29 18:36:00
9:56 AM,39.2,32.0,75,29.28,9.0,SSE,11.5,21.9,0.03,,Overcast,150,2013-01-29 18:56:00
10:16 AM,41.0,32.0,70,29.28,9.0,East,11.5,16.1,0.02,,Overcast,100,2013-01-29 19:16:00
10:36 AM,41.0,32.0,70,29.29,9.0,ESE,9.2,-,0.05,,Overcast,120,2013-01-29 19:36:00
10:56 AM,39.2,33.8,81,29.29,10.0,ESE,15.0,21.9,0.07,,Overcast,120,2013-01-29 19:56:00
11:16 AM,41.0,33.8,76,29.30,10.0,ESE,13.8,18.4,0.01,,Overcast,110,2013-01-29 20:16:00
11:36 AM,39.2,33.8,81,29.30,10.0,East,11.5,18.4,0.01,,Overcast,90,2013-01-29 20:36:00
11:56 AM,39.2,35.6,87,29.28,10.0,ENE,10.4,20.7,0.01,,Overcast,70,2013-01-29 20:56:00
12:16 PM,39.2,35.6,87,29.29,10.0,East,6.9,-,N/A,,Overcast,90,2013-01-29 21:16:00
12:36 PM,41.0,35.6,81,29.29,10.0,ENE,6.9,-,N/A,,Overcast,60,2013-01-29 21:36:00
12:56 PM,41.0,35.6,81,29.28,10.0,NNE,8.1,-,N/A,,Overcast,30,2013-01-29 21:56:00
1:16 PM,42.8,35.6,76,29.29,10.0,NE,6.9,-,N/A,,Overcast,40,2013-01-29 22:16:00
1:36 PM,44.6,35.6,71,29.30,10.0,North,6.9,-,N/A,,Overcast,350,2013-01-29 22:36:00
1:56 PM,42.8,35.6,76,29.30,10.0,NNE,8.1,-,N/A,,Overcast,30,2013-01-29 22:56:00
2:16 PM,41.0,35.6,81,29.31,10.0,North,15.0,-,N/A,,Overcast,360,2013-01-29 23:16:00
2:36 PM,39.2,33.8,81,29.32,10.0,North,6.9,16.1,N/A,,Overcast,350,2013-01-29 23:36:00
2:56 PM,39.2,33.8,81,29.32,10.0,North,8.1,-,N/A,,Overcast,350,2013-01-29 23:56:00
3:16 PM,37.4,33.8,87,29.33,10.0,NNW,6.9,-,N/A,,Overcast,330,2013-01-30 00:16:00
3:36 PM,39.2,33.8,81,29.33,10.0,NNE,3.5,-,N/A,,Overcast,30,2013-01-30 00:36:00
3:56 PM,39.2,35.6,87,29.34,10.0,NNE,4.6,-,N/A,,Overcast,30,2013-01-30 00:56:00
4:16 PM,39.2,33.8,81,29.35,10.0,NNW,4.6,-,N/A,,Overcast,340,2013-01-30 01:16:00
4:36 PM,39.2,35.6,87,29.35,10.0,Calm,Calm,-,N/A,,Overcast,0,2013-01-30 01:36:00
4:56 PM,39.2,35.6,87,29.35,10.0,Calm,Calm,-,N/A,,Overcast,0,2013-01-30 01:56:00
5:16 PM,39.2,33.8,81,29.35,10.0,Calm,Calm,-,N/A,,Overcast,0,2013-01-30 02:16:00
5:36 PM,39.2,33.8,81,29.35,10.0,North,6.9,-,N/A,,Mostly Cloudy,10,2013-01-30 02:36:00
5:56 PM,37.4,33.8,87,29.36,10.0,NNE,6.9,-,N/A,,Partly Cloudy,30,2013-01-30 02:56:00
6:16 PM,37.4,33.8,87,29.36,10.0,North,8.1,-,N/A,,Clear,360,2013-01-30 03:16:00
6:36 PM,37.4,33.8,87,29.36,10.0,NNW,9.2,-,N/A,,Clear,340,2013-01-30 03:36:00
6:56 PM,37.4,33.8,87,29.36,10.0,North,6.9,-,N/A,,Clear,10,2013-01-30 03:56:00
7:16 PM,37.4,33.8,87,29.37,10.0,NE,8.1,-,N/A,,Clear,40,2013-01-30 04:16:00
7:36 PM,37.4,33.8,87,29.36,10.0,NNE,6.9,-,N/A,,Partly Cloudy,20,2013-01-30 04:36:00
7:56 PM,37.4,33.8,87,29.37,10.0,NNW,3.5,-,N/A,,Clear,330,2013-01-30 04:56:00
8:16 PM,37.4,33.8,87,29.37,10.0,NE,8.1,-,N/A,,Partly Cloudy,40,2013-01-30 05:16:00
8:36 PM,37.4,33.8,87,29.37,10.0,ENE,5.8,-,N/A,,Clear,70,2013-01-30 05:36:00
8:56 PM,39.2,33.8,81,29.38,10.0,Calm,Calm,-,N/A,,Scattered Clouds,0,2013-01-30 05:56:00
9:16 PM,37.4,33.8,87,29.38,10.0,NNW,4.6,-,N/A,,Mostly Cloudy,340,2013-01-30 06:16:00
9:36 PM,37.4,33.8,87,29.39,10.0,NE,6.9,-,N/A,,Overcast,50,2013-01-30 06:36:00
9:56 PM,39.2,33.8,81,29.39,10.0,ESE,9.2,18.4,N/A,,Mostly Cloudy,110,2013-01-30 06:56:00
10:16 PM,39.2,33.8,81,29.39,10.0,East,5.8,16.1,N/A,,Overcast,90,2013-01-30 07:16:00
10:36 PM,39.2,33.8,81,29.39,10.0,East,9.2,-,N/A,,Overcast,90,2013-01-30 07:36:00
10:56 PM,39.2,33.8,81,29.39,10.0,NE,16.1,-,N/A,,Overcast,50,2013-01-30 07:56:00
11:36 PM,37.4,33.8,87,29.40,10.0,ENE,12.7,-,N/A,,Overcast,60,2013-01-30 08:36:00
11:56 PM,37.4,33.8,87,29.39,8.0,East,10.4,-,N/A,,Overcast,100,2013-01-30 08:56:00